[[{"header":{"parameterUnit":"m.s-1","parameterCategory":1,"la1":30.2991,"la2":30.254,"lo1":-89.0895,"lo2":-89.0444,"dy":0.0017,"dx":0.0017,"nx":28,"ny":28,"refTime":"2025-04-22T21:00:00:Z","depth":0,"parameterNumber":2,"parameterNumberName":"U-component_of_WINDS"},"data":[0,0,0,0,0,0,0,0,0,0,0,0,0,0,0,0,0,0,0,0,0,0,0,0,0,0,0,0,0,0,0,0,0,0,0,0,0,0,0,0,0,0,0,0,0,0,0,0,0,0,0,0,0,0,0,0,0,0,-1.2755,-1.2755,0,-1.271,-1.2709,-1.2708,-1.2679,-1.2679,-1.2679,-1.2679,-1.2633,-1.2632,-1.2631,0,0,0,0,0,0,0,0,0,0,0,0,0,-1.2821,-1.282,-1.2755,-1.2755,-1.2754,-1.271,-1.2709,-1.2708,-1.2679,-1.2679,-1.2679,-1.2679,-1.2634,-1.2632,-1.2631,0,0,0,0,0,0,0,0,0,0,0,0,0,-1.2785,-1.2819,-1.2756,-1.2734,-1.2732,-1.271,-1.2709,-1.2708,-1.2679,-1.2679,-1.2679,-1.2679,-1.2634,-1.2633,-1.2631,-1.2627,0,0,-1.2626,-1.2626,0,0,0,0,0,0,0,0,-1.2787,-1.2783,-1.2738,-1.2736,-1.2733,-1.27,-1.2715,-1.2681,-1.2679,-1.2699,-1.2679,-1.2678,-1.2656,-1.2652,-1.2644,-1.2625,-1.2623,-1.2626,-1.2625,-1.2625,-1.2624,0,0,0,0,0,0,0,-1.279,-1.2785,-1.2737,-1.2737,-1.2734,-1.2728,-1.2723,-1.2709,-1.268,-1.2698,-1.2695,-1.269,-1.2654,-1.2646,-1.2643,-1.2622,-1.2626,-1.2625,-1.2624,-1.2623,-1.2598,-1.2598,0,0,0,0,0,0,-1.2795,-1.2787,-1.2739,-1.2736,-1.276,-1.2727,-1.2721,-1.2711,-1.268,-1.2675,-1.2691,-1.2689,-1.2649,-1.2645,-1.2642,-1.2635,-1.2625,-1.2623,-1.2622,-1.2597,-1.2598,-1.2598,0,0,0,0,0,0,-1.2797,-1.2791,-1.2741,-1.2761,-1.2754,-1.2726,-1.2715,-1.271,-1.2702,-1.2674,-1.2669,-1.2687,-1.2648,-1.2644,-1.2631,-1.2633,-1.2622,-1.2621,-1.2597,-1.2598,-1.2598,-1.2621,0,0,0,0,0,0,-1.2799,-1.2792,-1.2789,-1.2761,-1.2753,-1.273,-1.2715,-1.2709,-1.2699,-1.2696,-1.267,-1.2665,-1.2648,-1.2633,-1.2629,-1.263,-1.262,-1.2597,-1.2597,-1.2598,-1.262,-1.2622,-1.2624,0,0,0,0,0,-1.2801,-1.2798,-1.2789,-1.2784,-1.2749,-1.273,-1.2726,-1.2705,-1.2699,-1.2697,-1.2679,-1.2666,-1.2634,-1.2632,-1.2627,-1.2628,-1.2597,-1.2597,-1.2598,-1.2619,-1.2622,-1.2624,0,0,0,0,0,0,-1.2828,-1.2794,-1.2784,-1.2771,-1.2754,-1.2725,-1.2721,-1.2709,-1.2693,-1.2691,-1.2668,-1.2662,-1.2652,-1.2639,-1.2638,-1.2623,-1.2614,-1.2613,-1.2632,-1.2634,-1.2636,-1.2639,-1.2618,0,0,0,0,0,-1.2832,-1.2819,-1.279,-1.2782,-1.2774,-1.2749,-1.274,-1.2726,-1.2707,-1.27,-1.2682,-1.2664,-1.265,-1.2642,-1.2627,-1.2619,-1.2613,-1.2617,-1.2619,-1.2621,-1.2621,-1.2616,-1.2618,-1.26,-1.26,-1.26,0,0,-1.2841,-1.2821,-1.2814,-1.2787,-1.2771,-1.2759,-1.2743,-1.273,-1.2721,-1.2698,-1.2685,-1.2671,-1.265,-1.264,-1.2634,-1.2629,-1.2625,-1.2622,-1.2623,-1.2622,-1.2617,-1.2618,-1.262,-1.26,-1.26,-1.26,0,0,-1.285,-1.2834,-1.2825,-1.281,-1.2787,-1.2771,-1.2769,-1.2743,-1.2733,-1.2719,-1.2702,-1.2691,-1.2667,-1.2653,-1.2643,-1.2649,-1.2636,-1.2645,-1.2656,-1.2651,-1.2653,-1.2654,-1.2656,-1.2657,-1.2645,-1.2645,-1.2645,0,-1.2864,-1.2844,-1.2822,-1.2811,-1.28,-1.2778,-1.277,-1.2757,-1.2731,-1.2724,-1.2718,-1.2689,-1.2673,-1.2659,-1.2661,-1.2653,-1.2651,-1.2648,-1.2654,-1.2655,-1.2656,-1.2658,-1.2659,-1.2647,-1.2646,-1.2646,-1.2646,0,-1.2863,-1.2849,-1.2845,-1.282,-1.2808,-1.2799,-1.2776,-1.2768,-1.2755,-1.274,-1.2727,-1.2708,-1.269,-1.2686,-1.2673,-1.2671,-1.2668,-1.2659,-1.2648,-1.2659,-1.2661,-1.2661,-1.2648,-1.2648,-1.2648,-1.2647,0,0,-1.2887,-1.285,-1.2849,-1.2838,-1.2811,-1.2801,-1.2791,-1.2772,-1.2766,-1.2749,-1.274,-1.2721,-1.2713,-1.2701,-1.2688,-1.2684,-1.269,-1.2675,-1.2674,-1.2679,-1.2687,-1.2694,-1.2695,-1.2682,-1.2682,-1.2682,-1.2688,0,-1.2892,-1.2872,-1.2852,-1.2839,-1.2827,-1.2807,-1.2798,-1.2782,-1.2768,-1.2756,-1.2741,-1.2728,-1.2718,-1.2711,-1.2707,-1.2691,-1.2692,-1.269,-1.2675,-1.2674,-1.268,-1.2695,-1.2702,-1.2709,-1.2689,-1.2689,-1.2689,0,-1.2896,-1.2879,-1.2865,-1.284,-1.2834,-1.2827,-1.2809,-1.2798,-1.2779,-1.277,-1.2758,-1.2743,-1.2733,-1.2724,-1.271,-1.2709,-1.2702,-1.2694,-1.2693,-1.2691,-1.2682,-1.2693,-1.271,-1.2711,-1.269,-1.269,-1.269,0,-1.2915,-1.2889,-1.2877,-1.2868,-1.2839,-1.2835,-1.2823,-1.2804,-1.2794,-1.2779,-1.2773,-1.2757,-1.2748,-1.2737,-1.2719,-1.2715,-1.2707,-1.2697,-1.2699,-1.2699,-1.2697,-1.2698,-1.2714,-1.2694,-1.2694,-1.2694,-1.2694,0,-1.2923,-1.2915,-1.2885,-1.2878,-1.2869,-1.2848,-1.2839,-1.2826,-1.2809,-1.28,-1.2782,-1.2774,-1.2751,-1.274,-1.2727,-1.2717,-1.2713,-1.2706,-1.2702,-1.2707,-1.2708,-1.2701,-1.27,-1.2694,-1.2694,-1.2694,-1.2694,0,-1.2942,-1.2922,-1.2908,-1.2882,-1.2875,-1.287,-1.2848,-1.2841,-1.2826,-1.2814,-1.2811,-1.2788,-1.2775,-1.2756,-1.2737,-1.2728,-1.272,-1.2714,-1.2726,-1.2724,-1.2727,-1.2727,-1.2739,-1.274,-1.2719,-1.272,-1.272,0,-1.2949,-1.2942,-1.2915,-1.2907,-1.2895,-1.2883,-1.2873,-1.2852,-1.2843,-1.2822,-1.2818,-1.2803,-1.2789,-1.2769,-1.2752,-1.2737,-1.2731,-1.2736,-1.2729,-1.2734,-1.2731,-1.2732,-1.2731,-1.2738,-1.2738,-1.2739,-1.2739,0,-1.2962,-1.2953,-1.2938,-1.2921,-1.291,-1.2895,-1.288,-1.2875,-1.2852,-1.2842,-1.2828,-1.2818,-1.2798,-1.2784,-1.2768,-1.2756,-1.2744,-1.2742,-1.2741,-1.2746,-1.2753,-1.2749,-1.2731,-1.2741,-1.2741,-1.2741,-1.2741,-1.2741,-1.2975,-1.2968,-1.2948,-1.2934,-1.292,-1.2907,-1.2899,-1.2883,-1.287,-1.2852,-1.2841,-1.2828,-1.2811,-1.2787,-1.2777,-1.2766,-1.2761,-1.2761,-1.2761,-1.2761,-1.2763,-1.2755,-1.2763,-1.2763,-1.2763,-1.2763,-1.2763,0,-1.2988,-1.2974,-1.2961,-1.294,-1.2929,-1.2917,-1.29,-1.2892,-1.288,-1.2865,-1.2852,-1.2836,-1.2823,-1.2804,-1.279,-1.2785,-1.2779,-1.2782,-1.2782,-1.278,-1.2768,-1.277,-1.2787,-1.2787,-1.2787,-1.2787,-1.2787,-1.2787,-1.2993,-1.2981,-1.2969,-1.2951,-1.2938,-1.2923,-1.2915,-1.2903,-1.289,-1.2873,-1.2861,-1.2849,-1.2833,-1.2817,-1.2805,-1.28,-1.2795,-1.28,-1.2793,-1.2783,-1.278,-1.2778,-1.278,-1.2799,-1.2799,-1.2806,-1.2806,-1.2806]},{"header":{"parameterUnit":"m.s-1","parameterCategory":1,"la1":30.2991,"la2":30.254,"lo1":-89.0895,"lo2":-89.0444,"dy":0.0017,"dx":0.0017,"nx":28,"ny":28,"refTime":"2025-04-22T21:00:00:Z","depth":0,"parameterNumber":3,"parameterNumberName":"V-component_of_WINDS"},"data":[0,0,0,0,0,0,0,0,0,0,0,0,0,0,0,0,0,0,0,0,0,0,0,0,0,0,0,0,0,0,0,0,0,0,0,0,0,0,0,0,0,0,0,0,0,0,0,0,0,0,0,0,0,0,0,0,0,0,4.5433,4.5433,0,4.5401,4.5401,4.5401,4.5404,4.5404,4.5405,4.5405,4.5369,4.5367,4.5366,0,0,0,0,0,0,0,0,0,0,0,0,0,4.5496,4.5495,4.5433,4.5433,4.5433,4.5401,4.5401,4.5401,4.5403,4.5404,4.5405,4.5405,4.5369,4.5368,4.5366,0,0,0,0,0,0,0,0,0,0,0,0,0,4.5467,4.5494,4.5433,4.543,4.543,4.5402,4.5401,4.54,4.5403,4.5404,4.5405,4.5406,4.537,4.5368,4.5366,4.5337,0,0,4.5359,4.5358,0,0,0,0,0,0,0,0,4.5468,4.5464,4.5431,4.5431,4.543,4.5407,4.541,4.5379,4.5403,4.5413,4.5405,4.5406,4.5381,4.5378,4.537,4.5336,4.5334,4.5359,4.5358,4.5357,4.5356,0,0,0,0,0,0,0,4.547,4.5466,4.5421,4.5431,4.543,4.543,4.5427,4.5404,4.5393,4.5412,4.5413,4.5409,4.5381,4.5372,4.5369,4.5334,4.5359,4.5357,4.5356,4.5355,4.5277,4.5277,0,0,0,0,0,0,4.5473,4.5467,4.5422,4.542,4.5451,4.5429,4.5425,4.5414,4.5393,4.5391,4.5408,4.5409,4.5375,4.5372,4.5368,4.5335,4.5357,4.5355,4.5353,4.5278,4.5277,4.5276,0,0,0,0,0,0,4.5475,4.5469,4.5423,4.5444,4.5438,4.5427,4.5414,4.5413,4.5404,4.539,4.5388,4.5402,4.5376,4.5371,4.5346,4.5334,4.5354,4.5352,4.5279,4.5278,4.5277,4.5269,0,0,0,0,0,0,4.5476,4.547,4.5459,4.5443,4.5437,4.5402,4.5413,4.5412,4.5401,4.5402,4.5384,4.5381,4.5376,4.5349,4.5344,4.5331,4.535,4.528,4.5279,4.5277,4.527,4.5267,4.5265,0,0,0,0,0,4.5479,4.5456,4.5458,4.5453,4.5423,4.5401,4.5397,4.5392,4.54,4.5389,4.5381,4.5382,4.5336,4.5346,4.534,4.5327,4.5281,4.5279,4.5277,4.5271,4.5268,4.5265,0,0,0,0,0,0,4.5468,4.5454,4.5456,4.5428,4.5416,4.5401,4.5387,4.5389,4.5373,4.5374,4.5368,4.5364,4.5339,4.5331,4.5342,4.53,4.531,4.5307,4.5307,4.5304,4.5301,4.5304,4.5348,0,0,0,0,0,4.5463,4.5447,4.5435,4.5412,4.5406,4.5398,4.5388,4.5386,4.5372,4.5367,4.5356,4.5343,4.5326,4.5314,4.5297,4.5269,4.5266,4.5257,4.5255,4.5253,4.525,4.5237,4.5233,4.5271,4.5271,4.5271,0,0,4.5452,4.5442,4.5432,4.541,4.54,4.5384,4.5393,4.5374,4.5362,4.5363,4.534,4.5332,4.5317,4.5291,4.5278,4.5282,4.524,4.5251,4.5249,4.5248,4.5235,4.5231,4.5228,4.527,4.527,4.527,0,0,4.5422,4.5413,4.5394,4.5385,4.5371,4.5366,4.5362,4.5348,4.5343,4.532,4.5321,4.5307,4.5277,4.5266,4.5257,4.5228,4.5229,4.5223,4.521,4.5197,4.5194,4.5192,4.5183,4.5179,4.522,4.522,4.522,0,4.5409,4.5385,4.5383,4.5366,4.5357,4.5359,4.534,4.5331,4.5312,4.5305,4.5311,4.5276,4.5265,4.5238,4.5231,4.5223,4.5218,4.5224,4.5195,4.5192,4.519,4.5181,4.5178,4.522,4.522,4.522,4.522,0,4.5371,4.5354,4.534,4.5324,4.5314,4.5295,4.529,4.528,4.528,4.5275,4.5252,4.524,4.5222,4.5216,4.5214,4.5189,4.5192,4.5196,4.5205,4.5186,4.5178,4.5174,4.5219,4.5219,4.5219,4.5219,0,0,4.5331,4.5318,4.5312,4.5307,4.5293,4.528,4.5263,4.5247,4.5239,4.5226,4.5212,4.5188,4.5193,4.5183,4.518,4.5169,4.5149,4.5175,4.5175,4.5171,4.5122,4.512,4.5116,4.515,4.515,4.5149,4.5124,0,4.5302,4.5272,4.5271,4.5244,4.5229,4.5234,4.5219,4.5209,4.5204,4.5192,4.5186,4.517,4.5177,4.5171,4.516,4.5154,4.5139,4.5156,4.5137,4.5136,4.5141,4.5111,4.5107,4.5084,4.5121,4.512,4.512,0,4.5262,4.5251,4.5223,4.5215,4.5209,4.5195,4.5182,4.517,4.516,4.5157,4.5148,4.5148,4.5131,4.5142,4.5118,4.5129,4.5122,4.5118,4.5117,4.5115,4.5127,4.5109,4.5077,4.5074,4.5114,4.5115,4.5115,0,4.5238,4.5216,4.5197,4.5192,4.5181,4.5172,4.5167,4.5157,4.5149,4.5138,4.5133,4.5119,4.5111,4.5101,4.5098,4.5105,4.5075,4.5085,4.5073,4.5073,4.5066,4.5066,4.5032,4.506,4.5061,4.5061,4.5061,0,4.5205,4.5187,4.5187,4.5175,4.5156,4.5156,4.5138,4.5133,4.5126,4.5113,4.5116,4.5104,4.5101,4.5088,4.5086,4.5068,4.5064,4.5062,4.5062,4.5062,4.5063,4.5057,4.5059,4.506,4.506,4.506,4.506,0,4.5174,4.5172,4.5152,4.5145,4.5143,4.513,4.5124,4.5113,4.511,4.5095,4.5091,4.5086,4.5072,4.5069,4.5051,4.505,4.5029,4.503,4.5033,4.5033,4.5022,4.5024,4.4984,4.4979,4.501,4.501,4.5009,0,4.5153,4.514,4.5133,4.5126,4.5121,4.5109,4.5102,4.5102,4.5094,4.5083,4.5074,4.5061,4.505,4.5028,4.5023,4.501,4.5011,4.4998,4.5009,4.5011,4.5012,4.5013,4.5013,4.4996,4.4996,4.4995,4.4995,0,4.5116,4.5117,4.5106,4.5097,4.5088,4.508,4.5072,4.5066,4.5065,4.5056,4.5044,4.5036,4.502,4.5007,4.4996,4.499,4.4993,4.4992,4.4989,4.4989,4.4992,4.4991,4.5028,4.4993,4.4993,4.4993,4.4993,4.4993,4.509,4.508,4.5074,4.5063,4.5058,4.5052,4.5042,4.504,4.5029,4.5017,4.5018,4.5004,4.4997,4.4982,4.4976,4.4965,4.4969,4.4964,4.4963,4.4962,4.4962,4.4994,4.4963,4.4963,4.4963,4.4963,4.4963,0,4.5054,4.5051,4.5042,4.5032,4.5024,4.503,4.5022,4.5015,4.5003,4.4997,4.4987,4.4974,4.4963,4.4958,4.4947,4.4939,4.494,4.4936,4.4937,4.4936,4.4958,4.4962,4.4936,4.4936,4.4936,4.4936,4.4936,4.4936,4.5034,4.5018,4.5019,4.5002,4.4999,4.4987,4.4982,4.4977,4.4972,4.4957,4.4949,4.4947,4.4941,4.4931,4.4921,4.492,4.4916,4.4912,4.4911,4.4931,4.4934,4.4937,4.4941,4.4911,4.4911,4.489,4.489,4.489]}]]